Location: Berg
(48.4333°N, 13.9167°E)
Time: 06:27:03
(UTC+00:00)

CENTAUR R/B - Pass Details

Date: 18 September 2020
Orbit: 755 x 1433 km, 63.4° (Epoch: 02 October)

Event Time Altitude Azimuth Distance (km) Brightness Sun altitude
Rises 19:24:13 0° 318° (NW) 4,101 7.0 -22.1°
Reaches altitude 10° 19:26:50 10° 319° (NW) 3,219 6.2 -22.4°
Maximum altitude 19:34:51 88° 48° (NE) 1,368 3.1 -23.6°
Enters shadow 19:38:32 40° 138° (SE) 1,955 3.5 -24.1°
